This demonstration page uses our WeatherBlox Daily Observations layout. Learn more.

Left ArrowRight Arrow

38.80484, -77.04692

Hourly Observations for April 15, 2016

Temp ( °F °C ) Dew Point ( °F °C ) Humidity (%) Winds ( mph kmh ) Pressure ( in mb ) Visibility ( mi km ) Precip ( " mm )
12:52 am 00:52 Clear 49 9.4 38 3.3 66 66 SE 7 11 30.36 1028 10 16 0.00 0.00
1:52 am 01:52 Clear 48 8.9 37 2.8 66 66 SSE 6 9 30.36 1028 10 16 0.00 0.00
2:52 am 02:52 Clear 47 8.3 37 2.8 69 69 SSE 3 6 30.35 1028 10 16 0.00 0.00
3:52 am 03:52 Clear 45 7.2 37 2.8 74 74 Calm 30.35 1028 10 16 0.00 0.00
4:52 am 04:52 Clear 46 7.8 37 2.8 71 71 Calm 30.36 1028 10 16 0.00 0.00
5:52 am 05:52 Clear 45 7.2 38 3.3 77 77 Calm 30.38 1029 10 16 0.00 0.00
6:52 am 06:52 Sunny 44 6.7 36 2.2 73 73 ESE 5 7 30.40 1030 10 16 0.00 0.00
7:52 am 07:52 Mostly Sunny 47 8.3 38 3.3 71 71 Calm 30.43 1030 10 16 0.00 0.00
8:52 am 08:52 Mostly Sunny 51 10.6 38 3.3 61 61 Calm 30.44 1031 10 16 0.00 0.00
9:52 am 09:52 Mostly Sunny 53 11.7 36 2.2 52 52 SE 5 7 30.45 1031 10 16 0.00 0.00
10:52 am 10:52 Mostly Sunny 56 13.3 34 1.1 44 44 SE 5 7 30.45 1031 10 16 0.00 0.00
11:52 am 11:52 Mostly Sunny 60 15.6 35 1.7 39 39 NE 6 9 30.45 1031 10 16 0.00 0.00
12:52 pm 12:52 Mostly Sunny 60 15.6 34 1.1 38 38 VRB 3 6 30.44 1031 10 16 0.00 0.00
1:52 pm 13:52 Mostly Sunny 63 17.2 34 1.1 34 34 E 7 11 30.42 1030 10 16 0.00 0.00
2:52 pm 14:52 Mostly Sunny 63 17.2 33 0.6 33 33 VRB 3 6 30.41 1030 10 16 0.00 0.00
3:52 pm 15:52 Mostly Sunny 62 16.7 31 -0.6 31 31 Calm 30.39 1029 10 16 0.00 0.00
4:52 pm 16:52 Mostly Sunny 63 17.2 31 -0.6 30 30 E 5 7 30.39 1029 10 16 0.00 0.00
5:52 pm 17:52 Mostly Sunny 62 16.7 34 1.1 35 35 ESE 8 13 30.38 1029 10 16 0.00 0.00
6:52 pm 18:52 Mostly Sunny 61 16.1 33 0.6 35 35 E 8 13 30.38 1029 10 16 0.00 0.00
7:52 pm 19:52 Mostly Clear 58 14.4 33 0.6 39 39 SE 8 13 30.39 1029 10 16 0.00 0.00
8:52 pm 20:52 Clear 56 13.3 35 1.7 46 46 SE 6 9 30.41 1030 10 16 0.00 0.00
9:52 pm 21:52 Clear 54 12.2 35 1.7 49 49 SSE 7 11 30.42 1030 10 16 0.00 0.00
10:52 pm 22:52 Clear 52 11.1 35 1.7 53 53 S 8 13 30.42 1030 10 16 0.00 0.00
11:52 pm 23:52 Clear 50 10 36 2.2 59 59 SSW 8 13 30.42 1030 10 16 0.00 0.00

Powered by AerisWeather